,,Stat5,,Stat1,,Stat2,,Stat3,,Stat4,,Wind1,,Wind1,
time,status,PA1M_AVG,status,PR1M_SUM,status,RH1M_AVG,status,SR1M_AVG,status,TA1M_AVG,status,W1dAve1m,status,W1sAve1m,
2002-12-02, 00:00:01,VALID,918.984,VALID,0,VALID,98.4222,VALID,-0.0169808,VALID,19.3496,VALID,360,VALID,0.611607,
2002-12-02, 00:01:00,VALID,918.979,VALID,0,VALID,98.3624,VALID,-0.0339617,VALID,19.3302,VALID,5,VALID,0.539509,
2002-12-02, 00:02:00,VALID,918.975,VALID,0,VALID,98.3408,VALID,0,VALID,19.3108,VALID,358,VALID,0.78639,
2002-12-02, 00:03:00,VALID,918.97,VALID,0,VALID,98.3599,VALID,0,VALID,19.3111,VALID,5,VALID,0.687054,
2002-12-02, 00:04:00,VALID,918.96,VALID,0,VALID,98.3306,VALID,-0.0169808,VALID,19.3014,VALID,1,VALID,0.844551,
2002-12-02, 00:05:00,VALID,918.943,VALID,0,VALID,98.3027,VALID,0,VALID,19.2815,VALID,350,VALID,0.838542,
2002-12-02, 00:06:00,VALID,918.929,VALID,0,VALID,98.2963,VALID,0.0679233,VALID,19.2614,VALID,8,VALID,0.778245,
2002-12-02, 00:07:00,VALID,918.92,VALID,0,VALID,98.262,VALID,0.101885,VALID,19.2515,VALID,355,VALID,0.795436,
2002-12-02, 00:08:00,VALID,918.897,VALID,0,VALID,98.2721,VALID,0.101885,VALID,19.249,VALID,358,VALID,0.578125,
2002-12-02, 00:09:00,VALID,918.887,VALID,0,VALID,98.2594,VALID,0.0509425,VALID,19.2289,VALID,1,VALID,0.69707,
2002-12-02, 00:10:00,VALID,918.897,VALID,0,VALID,98.3268,VALID,0.0849042,VALID,19.2452,VALID,357,VALID,0.841071,
2002-12-02, 00:11:00,VALID,918.895,VALID,0,VALID,98.3256,VALID,0.0509425,VALID,19.2455,VALID,348,VALID,0.96658,
2002-12-02, 00:12:00,VALID,918.908,VALID,0,VALID,98.3294,VALID,0.0509425,VALID,19.2557,VALID,349,VALID,0.977618,
2002-12-02, 00:13:00,VALID,918.908,VALID,0,VALID,98.3205,VALID,0.0339617,VALID,19.2524,VALID,355,VALID,0.930357,
2002-12-02, 00:14:00,VALID,918.934,VALID,0,VALID,98.3039,VALID,0.0509425,VALID,19.2557,VALID,358,VALID,0.766406,
2002-12-02, 00:15:00,VALID,918.948,VALID,0,VALID,98.2569,VALID,0.0679233,VALID,19.2427,VALID,5,VALID,0.907306,
2002-12-02, 00:16:00,VALID,918.964,VALID,0,VALID,98.1971,VALID,0.0849042,VALID,19.2226,VALID,360,VALID,0.683799,
2002-12-02, 00:17:00,VALID,918.985,VALID,0,VALID,98.1933,VALID,0.0679233,VALID,19.2169,VALID,357,VALID,0.846117,
2002-12-02, 00:18:00,VALID,918.982,VALID,0,VALID,98.1488,VALID,0.0679233,VALID,19.2102,VALID,358,VALID,0.692708,
2002-12-02, 00:19:00,VALID,918.984,VALID,0,VALID,98.1196,VALID,0.0679233,VALID,19.2035,VALID,331,VALID,0.717516,
2002-12-02, 00:20:00,VALID,918.982,VALID,0,VALID,98.206,VALID,0.0679233,VALID,19.2164,VALID,317,VALID,0.766226,
2002-12-02, 00:21:00,VALID,918.973,VALID,0,VALID,98.2353,VALID,-0.0679233,VALID,19.241,VALID,294,VALID,0.365337,
2002-12-02, 00:22:00,VALID,918.974,VALID,0,VALID,98.0814,VALID,-0.0509425,VALID,19.2087,VALID,307,VALID,0.0382179,
2002-12-02, 00:23:00,VALID,918.954,VALID,0,VALID,98.0585,VALID,-0.0339617,VALID,19.1893,VALID,306,VALID,0.239258,
2002-12-02, 00:24:00,VALID,918.929,VALID,0,VALID,98.1653,VALID,-0.0849042,VALID,19.1858,VALID,318,VALID,0.220982,
2002-12-02, 00:25:00,VALID,918.912,VALID,0,VALID,97.8958,VALID,-0.0339617,VALID,19.1371,VALID,359,VALID,0.338325,
2002-12-02, 00:26:00,VALID,918.902,VALID,0,VALID,97.6656,VALID,-0.0679233,VALID,19.0504,VALID,2,VALID,0.381611,
2002-12-02, 00:27:00,VALID,918.903,VALID,0,VALID,97.8932,VALID,-0.0339617,VALID,19.0635,VALID,327,VALID,0.639955,
2002-12-02, 00:28:00,VALID,918.916,VALID,0,VALID,98.0077,VALID,-0.0339617,VALID,19.0896,VALID,344,VALID,0.311328,
2002-12-02, 00:29:00,VALID,918.939,VALID,0,VALID,97.7419,VALID,-0.0509425,VALID,19.0116,VALID,352,VALID,0.327492,
2002-12-02, 00:30:00,VALID,918.956,VALID,0,VALID,97.8309,VALID,-0.0679233,VALID,19.0119,VALID,11,VALID,0.337377,
2002-12-02, 00:31:00,VALID,918.944,VALID,0,VALID,97.7266,VALID,-0.0169808,VALID,18.9666,VALID,355,VALID,0.490294,
2002-12-02, 00:32:00,VALID,918.974,VALID,0,VALID,97.9695,VALID,0,VALID,18.9825,VALID,340,VALID,0.495393,
2002-12-02, 00:33:00,VALID,918.974,VALID,0,VALID,97.8792,VALID,-0.0169808,VALID,18.9694,VALID,340,VALID,0.235403,
2002-12-02, 00:34:00,VALID,918.978,VALID,0,VALID,97.8245,VALID,-0.0169808,VALID,18.9242,VALID,340,VALID,0.199519,
2002-12-02, 00:35:00,VALID,918.965,VALID,0,VALID,98.1043,VALID,-0.0509425,VALID,18.983,VALID,340,VALID,0,
2002-12-02, 00:36:00,VALID,918.943,VALID,0,VALID,97.9759,VALID,-0.0509425,VALID,18.9666,VALID,340,VALID,0,
2002-12-02, 00:37:00,VALID,918.912,VALID,0,VALID,98.0216,VALID,-0.0169808,VALID,18.9373,VALID,340,VALID,0.0386719,
2002-12-02, 00:38:00,VALID,918.871,VALID,0,VALID,98.0458,VALID,-0.0339617,VALID,18.9311,VALID,341,VALID,0.00334821,
2002-12-02, 00:39:00,VALID,918.839,VALID,0,VALID,97.9301,VALID,-0.0849042,VALID,18.905,VALID,341,VALID,0,
2002-12-02, 00:40:00,VALID,918.794,VALID,0,VALID,97.9136,VALID,-0.0509425,VALID,18.876,VALID,341,VALID,0,
2002-12-02, 00:41:00,VALID,918.771,VALID,0,VALID,98.028,VALID,-0.0679233,VALID,18.8856,VALID,303,VALID,0.182812,
2002-12-02, 00:42:00,VALID,918.73,VALID,0,VALID,97.9975,VALID,-0.0509425,VALID,18.8762,VALID,297,VALID,0.273828,
2002-12-02, 00:43:00,VALID,918.688,VALID,0,VALID,97.9695,VALID,-0.0169808,VALID,18.8404,VALID,296,VALID,0.179476,
2002-12-02, 00:44:00,VALID,918.659,VALID,0,VALID,98.0407,VALID,0,VALID,18.8173,VALID,295,VALID,0.0265214,
2002-12-02, 00:45:00,VALID,918.635,VALID,0,VALID,97.9619,VALID,-0.0339617,VALID,18.792,VALID,295,VALID,0,
2002-12-02, 00:46:00,VALID,918.628,VALID,0,VALID,97.5054,VALID,-0.0169808,VALID,18.6692,VALID,295,VALID,0,
2002-12-02, 00:47:00,VALID,918.614,VALID,0,VALID,97.2854,VALID,-0.0339617,VALID,18.5691,VALID,295,VALID,0,
2002-12-02, 00:48:00,VALID,918.625,VALID,0,VALID,97.026,VALID,-0.0339617,VALID,18.4826,VALID,295,VALID,0.0883413,
2002-12-02, 00:49:00,VALID,918.618,VALID,0,VALID,96.8301,VALID,-0.0339617,VALID,18.3756,VALID,295,VALID,0.195929,
2002-12-02, 00:50:00,VALID,918.618,VALID,0,VALID,96.9395,VALID,-0.0679233,VALID,18.2981,VALID,295,VALID,0.134924,
2002-12-02, 00:51:00,VALID,918.614,VALID,0,VALID,97.1048,VALID,-0.0169808,VALID,18.2621,VALID,295,VALID,0.0816406,
2002-12-02, 00:52:00,VALID,918.591,VALID,0,VALID,97.3273,VALID,0.0169808,VALID,18.2265,VALID,295,VALID,0,
2002-12-02, 00:53:00,VALID,918.597,VALID,0,VALID,97.4558,VALID,-0.0169808,VALID,18.1938,VALID,295,VALID,0.00108507,
2002-12-02, 00:54:00,VALID,918.597,VALID,0,VALID,97.9288,VALID,-0.0339617,VALID,18.2492,VALID,295,VALID,0.0855369,
2002-12-02, 00:55:00,VALID,918.602,VALID,0,VALID,98.5481,VALID,0,VALID,18.4175,VALID,295,VALID,0.280804,
2002-12-02, 00:56:00,VALID,918.584,VALID,0,VALID,98.8876,VALID,-0.0169808,VALID,18.552,VALID,295,VALID,0.342773,
2002-12-02, 00:57:00,VALID,918.559,VALID,0,VALID,98.9944,VALID,-0.0169808,VALID,18.6429,VALID,294,VALID,0.146326,
2002-12-02, 00:58:00,VALID,918.534,VALID,0,VALID,99.0504,VALID,-0.0169808,VALID,18.7075,VALID,294,VALID,0.0271382,
2002-12-02, 00:59:00,VALID,918.48,VALID,0,VALID,99.0504,VALID,-0.0169808,VALID,18.7304,VALID,294,VALID,0,
2002-12-02, 01:00:00,VALID,918.443,VALID,0,VALID,99.0377,VALID,0.0169808,VALID,18.7468,VALID,294,VALID,0,
2002-12-02, 01:01:00,VALID,918.423,VALID,0,VALID,99.0427,VALID,0,VALID,18.7463,VALID,294,VALID,0,
2002-12-02, 01:02:00,VALID,918.419,VALID,0,VALID,99.0453,VALID,-0.0339617,VALID,18.7562,VALID,294,VALID,0,
2002-12-02, 01:03:00,VALID,918.42,VALID,0,VALID,99.0542,VALID,-0.0169808,VALID,18.7463,VALID,294,VALID,0,
2002-12-02, 01:04:00,VALID,918.433,VALID,0,VALID,98.9512,VALID,-0.0169808,VALID,18.7115,VALID,294,VALID,0,
2002-12-02, 01:05:00,VALID,918.428,VALID,0,VALID,98.9054,VALID,0,VALID,18.6595,VALID,294,VALID,0,
2002-12-02, 01:06:00,VALID,918.43,VALID,0,VALID,98.9258,VALID,-0.0169808,VALID,18.6203,VALID,294,VALID,0,
2002-12-02, 01:07:00,VALID,918.438,VALID,0,VALID,98.9372,VALID,-0.0169808,VALID,18.618,VALID,294,VALID,0,
2002-12-02, 01:08:00,VALID,918.43,VALID,0,VALID,98.9308,VALID,-0.0169808,VALID,18.5952,VALID,294,VALID,0,
2002-12-02, 01:09:00,VALID,918.428,VALID,0,VALID,98.8164,VALID,-0.0339617,VALID,18.5465,VALID,294,VALID,0,
2002-12-02, 01:10:00,VALID,918.411,VALID,0,VALID,98.6142,VALID,0,VALID,18.4425,VALID,294,VALID,0,
2002-12-02, 01:11:00,VALID,918.41,VALID,0,VALID,98.5989,VALID,-0.0169808,VALID,18.3848,VALID,294,VALID,0,
2002-12-02, 01:12:00,VALID,918.403,VALID,0,VALID,98.5799,VALID,-0.0339617,VALID,18.3368,VALID,294,VALID,0,
2002-12-02, 01:13:00,VALID,918.382,VALID,0,VALID,98.6206,VALID,-0.0169808,VALID,18.2847,VALID,294,VALID,0,
2002-12-02, 01:14:00,VALID,918.381,VALID,0,VALID,98.721,VALID,-0.0169808,VALID,18.2817,VALID,294,VALID,0,
2002-12-02, 01:15:00,VALID,918.382,VALID,0,VALID,98.8177,VALID,0,VALID,18.3013,VALID,294,VALID,0,
2002-12-02, 01:16:00,VALID,918.377,VALID,0,VALID,98.8749,VALID,0,VALID,18.3497,VALID,294,VALID,0,
2002-12-02, 01:17:00,VALID,918.388,VALID,0,VALID,98.8838,VALID,-0.0169808,VALID,18.3624,VALID,294,VALID,0,
2002-12-02, 01:18:00,VALID,918.385,VALID,0,VALID,98.9232,VALID,-0.0169808,VALID,18.3917,VALID,294,VALID,0.0472973,
2002-12-02, 01:19:00,VALID,918.397,VALID,0,VALID,99.0402,VALID,-0.0339617,VALID,18.4146,VALID,294,VALID,0.127539,
2002-12-02, 01:20:00,VALID,918.391,VALID,0,VALID,99.0936,VALID,-0.0679233,VALID,18.4468,VALID,210,VALID,0.35067,
2002-12-02, 01:21:00,VALID,918.37,VALID,0,VALID,98.9436,VALID,-0.0339617,VALID,18.4302,VALID,161,VALID,0.508247,
2002-12-02, 01:22:00,VALID,918.363,VALID,0,VALID,98.8456,VALID,-0.0339617,VALID,18.3788,VALID,164,VALID,0.656851,
2002-12-02, 01:23:00,VALID,918.349,VALID,0,VALID,98.8698,VALID,-0.0169808,VALID,18.3368,VALID,163,VALID,0.687946,
2002-12-02, 01:24:00,VALID,918.347,VALID,0,VALID,98.9931,VALID,-0.0169808,VALID,18.3306,VALID,164,VALID,0.578125,
2002-12-02, 01:25:00,VALID,918.323,VALID,0,VALID,99.072,VALID,-0.0169808,VALID,18.3465,VALID,167,VALID,0.898015,
2002-12-02, 01:26:00,VALID,918.308,VALID,0,VALID,99.2208,VALID,0,VALID,18.3855,VALID,168,VALID,0.774877,
2002-12-02, 01:27:00,VALID,918.274,VALID,0,VALID,99.2182,VALID,-0.0339617,VALID,18.4111,VALID,143,VALID,0.410985,
2002-12-02, 01:28:00,VALID,918.266,VALID,0,VALID,99.208,VALID,-0.0169808,VALID,18.3952,VALID,138,VALID,0.572115,
2002-12-02, 01:29:00,VALID,918.245,VALID,0,VALID,99.2576,VALID,-0.0169808,VALID,18.4143,VALID,129,VALID,0.550781,
2002-12-02, 01:30:00,VALID,918.216,VALID,0,VALID,99.2691,VALID,-0.0169808,VALID,18.421,VALID,129,VALID,0.494992,
2002-12-02, 01:31:00,VALID,918.21,VALID,0,VALID,99.3136,VALID,-0.0679233,VALID,18.4404,VALID,151,VALID,0.7169,
2002-12-02, 01:32:00,VALID,918.199,VALID,0,VALID,99.3568,VALID,0,VALID,18.4759,VALID,151,VALID,0.60473,
2002-12-02, 01:33:00,VALID,918.184,VALID,0,VALID,99.3657,VALID,-0.0339617,VALID,18.4951,VALID,166,VALID,0.655273,
2002-12-02, 01:34:00,VALID,918.16,VALID,0,VALID,99.3975,VALID,0,VALID,18.5174,VALID,167,VALID,0.502009,
2002-12-02, 01:35:00,VALID,918.133,VALID,0,VALID,99.3937,VALID,-0.0169808,VALID,18.5437,VALID,168,VALID,0.421658,
2002-12-02, 01:36:00,VALID,918.096,VALID,0,VALID,99.3937,VALID,-0.0339617,VALID,18.5204,VALID,149,VALID,0.297075,
2002-12-02, 01:37:00,VALID,918.069,VALID,0,VALID,99.3772,VALID,0,VALID,18.5045,VALID,151,VALID,0.422545,
2002-12-02, 01:38:00,VALID,918.053,VALID,0,VALID,99.3962,VALID,-0.0169808,VALID,18.5045,VALID,159,VALID,0.441602,
2002-12-02, 01:39:00,VALID,918.059,VALID,0,VALID,99.4318,VALID,-0.0509425,VALID,18.5467,VALID,166,VALID,0.542019,
2002-12-02, 01:40:00,VALID,918.052,VALID,0,VALID,99.4509,VALID,0,VALID,18.5728,VALID,166,VALID,0.469367,
2002-12-02, 01:41:00,VALID,918.039,VALID,0,VALID,99.456,VALID,-0.0509425,VALID,18.6049,VALID,164,VALID,0.439394,
2002-12-02, 01:42:00,VALID,918.019,VALID,0,VALID,99.4624,VALID,-0.0339617,VALID,18.6176,VALID,164,VALID,0.533854,
2002-12-02, 01:43:00,VALID,917.998,VALID,0,VALID,99.4687,VALID,-0.0169808,VALID,18.6309,VALID,162,VALID,0.564762,
2002-12-02, 01:44:00,VALID,917.954,VALID,0,VALID,99.4585,VALID,-0.0339617,VALID,18.6176,VALID,151,VALID,0.21895,
2002-12-02, 01:45:00,VALID,917.927,VALID,0,VALID,99.4535,VALID,-0.0169808,VALID,18.5979,VALID,151,VALID,0.179893,
2002-12-02, 01:46:00,VALID,917.892,VALID,0,VALID,99.4039,VALID,-0.0169808,VALID,18.5472,VALID,138,VALID,0.267314,
2002-12-02, 01:47:00,VALID,917.857,VALID,0,VALID,99.353,VALID,-0.0169808,VALID,18.4595,VALID,60,VALID,0.258398,
2002-12-02, 01:48:00,VALID,917.847,VALID,0,VALID,99.2487,VALID,-0.0169808,VALID,18.3465,VALID,58,VALID,0.20625,
2002-12-02, 01:49:00,VALID,917.82,VALID,0,VALID,99.1915,VALID,-0.0169808,VALID,18.2531,VALID,58,VALID,0.1773,
2002-12-02, 01:50:00,VALID,917.817,VALID,0,VALID,99.2882,VALID,0,VALID,18.2332,VALID,58,VALID,0.0791266,
2002-12-02, 01:51:00,VALID,917.803,VALID,0,VALID,99.3314,VALID,-0.135847,VALID,18.2478,VALID,58,VALID,0.196205,
2002-12-02, 01:52:00,VALID,917.78,VALID,0,VALID,99.353,VALID,-0.101885,VALID,18.2646,VALID,58,VALID,0.4125,
2002-12-02, 01:53:00,VALID,917.759,VALID,0,VALID,99.3657,VALID,-0.152827,VALID,18.2445,VALID,58,VALID,0.468961,
2002-12-02, 01:54:00,VALID,917.753,VALID,0,VALID,99.4166,VALID,-0.118866,VALID,18.2934,VALID,58,VALID,0.247738,
2002-12-02, 01:55:00,VALID,917.746,VALID,0,VALID,99.4268,VALID,-0.101885,VALID,18.2863,VALID,58,VALID,0.00378788,
2002-12-02, 01:56:00,VALID,917.754,VALID,0,VALID,99.4077,VALID,-0.135847,VALID,18.2542,VALID,58,VALID,0.300681,
2002-12-02, 01:57:00,VALID,917.734,VALID,0,VALID,99.3581,VALID,-0.101885,VALID,18.1959,VALID,58,VALID,0.33676,
2002-12-02, 01:58:00,VALID,917.731,VALID,0,VALID,99.3021,VALID,-0.101885,VALID,18.1147,VALID,58,VALID,0.294071,
2002-12-02, 01:59:00,VALID,917.736,VALID,0,VALID,99.3657,VALID,-0.0849042,VALID,18.1278,VALID,58,VALID,0.214844,
2002-12-02, 02:00:00,VALID,917.732,VALID,0,VALID,99.4255,VALID,-0.135847,VALID,18.1896,VALID,58,VALID,0.0865709,
2002-12-02, 02:01:00,VALID,917.743,VALID,0,VALID,99.4611,VALID,-0.118866,VALID,18.209,VALID,58,VALID,0.0376953,
2002-12-02, 02:02:00,VALID,917.738,VALID,0,VALID,99.4522,VALID,-0.101885,VALID,18.1901,VALID,46,VALID,0.512054,
2002-12-02, 02:03:00,VALID,917.717,VALID,0,VALID,99.3746,VALID,-0.118866,VALID,18.0927,VALID,35,VALID,0.975694,
2002-12-02, 02:04:00,VALID,917.721,VALID,0,VALID,99.3492,VALID,-0.101885,VALID,18.0704,VALID,44,VALID,0.808093,
2002-12-02, 02:05:01,VALID,917.731,VALID,0,VALID,99.3327,VALID,-0.0849042,VALID,18.0215,VALID,73,VALID,0.760714,
2002-12-02, 02:06:00,VALID,917.731,VALID,0,VALID,99.3835,VALID,0,VALID,18.0199,VALID,85,VALID,0.882422,
2002-12-02, 02:07:00,VALID,917.715,VALID,0,VALID,99.4026,VALID,-0.0169808,VALID,18.0429,VALID,87,VALID,0.799831,
2002-12-02, 02:08:00,VALID,917.721,VALID,0,VALID,99.4293,VALID,0,VALID,18.0266,VALID,87,VALID,0.690584,
2002-12-02, 02:09:00,VALID,917.691,VALID,0,VALID,99.4395,VALID,0,VALID,18.0266,VALID,87,VALID,0.554451,
2002-12-02, 02:10:00,VALID,917.656,VALID,0,VALID,99.4471,VALID,0,VALID,18.0236,VALID,84,VALID,0.414864,
2002-12-02, 02:11:00,VALID,917.634,VALID,0,VALID,99.4382,VALID,-0.0339617,VALID,17.9816,VALID,81,VALID,0.171669,
2002-12-02, 02:12:00,VALID,917.603,VALID,0,VALID,99.3924,VALID,-0.0169808,VALID,17.9071,VALID,81,VALID,0.121394,
2002-12-02, 02:13:00,VALID,917.588,VALID,0,VALID,99.3912,VALID,-0.0169808,VALID,17.8886,VALID,89,VALID,0.598684,
2002-12-02, 02:14:00,VALID,917.607,VALID,0,VALID,99.4471,VALID,-0.0169808,VALID,17.9105,VALID,104,VALID,0.698269,
2002-12-02, 02:15:00,VALID,917.63,VALID,0,VALID,99.498,VALID,-0.0509425,VALID,17.9622,VALID,107,VALID,0.830273,
2002-12-02, 02:16:00,VALID,917.636,VALID,0,VALID,99.5374,VALID,-0.0169808,VALID,17.9952,VALID,92,VALID,1.17835,
2002-12-02, 02:17:00,VALID,917.655,VALID,0,VALID,99.531,VALID,-0.0169808,VALID,18.0016,VALID,91,VALID,1.21202,
2002-12-02, 02:18:00,VALID,917.676,VALID,0,VALID,99.5158,VALID,-0.0169808,VALID,17.9786,VALID,97,VALID,1.07232,
2002-12-02, 02:19:01,VALID,917.701,VALID,0,VALID,99.5005,VALID,-0.0169808,VALID,17.9562,VALID,96,VALID,0.819643,
2002-12-02, 02:20:00,VALID,917.72,VALID,0,VALID,99.5158,VALID,0,VALID,17.9587,VALID,97,VALID,0.730469,
2002-12-02, 02:21:00,VALID,917.753,VALID,0,VALID,99.5501,VALID,0,VALID,17.9853,VALID,112,VALID,0.725929,
2002-12-02, 02:22:01,VALID,917.768,VALID,0,VALID,99.5692,VALID,0,VALID,18.0074,VALID,142,VALID,0.732525,
2002-12-02, 02:23:00,VALID,917.79,VALID,0,VALID,99.6061,VALID,-0.0169808,VALID,18.0565,VALID,138,VALID,0.737689,
2002-12-02, 02:24:00,VALID,917.78,VALID,0,VALID,99.615,VALID,-0.0509425,VALID,18.0787,VALID,137,VALID,0.689303,
2002-12-02, 02:25:00,VALID,917.792,VALID,0,VALID,99.6302,VALID,-0.0169808,VALID,18.1047,VALID,128,VALID,0.746505,
2002-12-02, 02:26:00,VALID,917.78,VALID,0,VALID,99.6442,VALID,-0.0339617,VALID,18.1368,VALID,104,VALID,0.979768,
2002-12-02, 02:27:00,VALID,917.778,VALID,0,VALID,99.6544,VALID,-0.0339617,VALID,18.1659,VALID,97,VALID,0.912007,
2002-12-02, 02:28:00,VALID,917.781,VALID,0,VALID,99.6569,VALID,-0.0169808,VALID,18.1816,VALID,111,VALID,0.835938,
2002-12-02, 02:29:00,VALID,917.783,VALID,0,VALID,99.6506,VALID,-0.0169808,VALID,18.185,VALID,103,VALID,0.804688,
2002-12-02, 02:30:00,VALID,917.787,VALID,0,VALID,99.6518,VALID,0,VALID,18.2016,VALID,105,VALID,0.734821,
2002-12-02, 02:31:00,VALID,917.798,VALID,0,VALID,99.6556,VALID,0,VALID,18.2148,VALID,113,VALID,0.70421,
2002-12-02, 02:32:00,VALID,917.793,VALID,0,VALID,99.6607,VALID,0,VALID,18.2145,VALID,118,VALID,0.907252,
2002-12-02, 02:33:01,VALID,917.775,VALID,0,VALID,99.6709,VALID,-0.0169808,VALID,18.2399,VALID,115,VALID,0.693527,
2002-12-02, 02:34:00,VALID,917.77,VALID,0,VALID,99.6722,VALID,0,VALID,18.2667,VALID,117,VALID,0.403711,
2002-12-02, 02:35:00,VALID,917.727,VALID,0,VALID,99.6785,VALID,-0.0169808,VALID,18.2655,VALID,114,VALID,0.575802,
2002-12-02, 02:36:01,VALID,917.698,VALID,0,VALID,99.6773,VALID,0.0169808,VALID,18.2951,VALID,95,VALID,0.659951,
2002-12-02, 02:37:00,VALID,917.669,VALID,0,VALID,99.6696,VALID,0,VALID,18.2754,VALID,74,VALID,0.768466,
2002-12-02, 02:38:01,VALID,917.656,VALID,0,VALID,99.6658,VALID,0,VALID,18.2496,VALID,69,VALID,0.895433,
2002-12-02, 02:39:00,VALID,917.623,VALID,0,VALID,99.6569,VALID,0,VALID,18.224,VALID,69,VALID,0.766447,
2002-12-02, 02:40:00,VALID,917.611,VALID,0,VALID,99.6531,VALID,-0.0169808,VALID,18.2016,VALID,70,VALID,0.806891,
2002-12-02, 02:41:00,VALID,917.605,VALID,0,VALID,99.6442,VALID,0,VALID,18.1786,VALID,73,VALID,0.560238,
2002-12-02, 02:42:00,VALID,917.601,VALID,0,VALID,99.6468,VALID,0,VALID,18.1592,VALID,75,VALID,0.503801,
2002-12-02, 02:43:00,VALID,917.606,VALID,0,VALID,99.6429,VALID,0.0169808,VALID,18.1239,VALID,76,VALID,0.328711,
2002-12-02, 02:44:00,VALID,917.611,VALID,0,VALID,99.6353,VALID,-0.0169808,VALID,18.1045,VALID,102,VALID,0.332589,
2002-12-02, 02:45:00,VALID,917.631,VALID,0,VALID,99.6506,VALID,-0.0169808,VALID,18.1047,VALID,165,VALID,0.491536,
2002-12-02, 02:46:00,VALID,917.638,VALID,0,VALID,99.6569,VALID,-0.0169808,VALID,18.1077,VALID,165,VALID,0.351162,
2002-12-02, 02:47:01,VALID,917.628,VALID,0,VALID,99.6684,VALID,0,VALID,18.1209,VALID,165,VALID,0.0928571,
2002-12-02, 02:48:00,VALID,917.595,VALID,0,VALID,99.6722,VALID,-0.0169808,VALID,18.144,VALID,158,VALID,0.0552734,
2002-12-02, 02:49:00,VALID,917.573,VALID,0,VALID,99.6811,VALID,-0.0509425,VALID,18.1114,VALID,38,VALID,0.464316,
2002-12-02, 02:50:01,VALID,917.554,VALID,0,VALID,99.6633,VALID,-0.0169808,VALID,18.0591,VALID,38,VALID,0.470189,
2002-12-02, 02:51:00,VALID,917.535,VALID,0,VALID,99.6569,VALID,0.0169808,VALID,18.0302,VALID,43,VALID,0.748816,
2002-12-02, 02:52:01,VALID,917.535,VALID,0,VALID,99.6506,VALID,0.0339617,VALID,17.9973,VALID,45,VALID,1.01903,
2002-12-02, 02:53:00,VALID,917.518,VALID,0,VALID,99.6226,VALID,0,VALID,17.9008,VALID,37,VALID,1.14083,
2002-12-02, 02:54:00,VALID,917.509,VALID,0,VALID,99.5933,VALID,0,VALID,17.8236,VALID,29,VALID,1.21154,
2002-12-02, 02:55:00,VALID,917.504,VALID,0,VALID,99.5984,VALID,0.0169808,VALID,17.7652,VALID,24,VALID,0.984375,
2002-12-02, 02:56:00,VALID,917.502,VALID,0,VALID,99.5933,VALID,0,VALID,17.7329,VALID,24,VALID,1.00422,
2002-12-02, 02:57:00,VALID,917.486,VALID,0,VALID,99.6226,VALID,0,VALID,17.7297,VALID,19,VALID,0.859961,
2002-12-02, 02:58:00,VALID,917.509,VALID,0,VALID,99.6531,VALID,0,VALID,17.7235,VALID,360,VALID,0.762946,
2002-12-02, 02:59:00,VALID,917.517,VALID,0,VALID,99.6658,VALID,0.0169808,VALID,17.759,VALID,331,VALID,0.881076,
2002-12-02, 03:00:00,VALID,917.523,VALID,0,VALID,99.6976,VALID,0,VALID,17.8335,VALID,318,VALID,0.610777,
2002-12-02, 03:01:01,VALID,917.511,VALID,0,VALID,99.7129,VALID,0,VALID,17.8884,VALID,304,VALID,0.0285714,
2002-12-02, 03:02:01,VALID,917.484,VALID,0,VALID,99.7192,VALID,0,VALID,17.9075,VALID,304,VALID,0,
2002-12-02, 03:03:00,VALID,917.444,VALID,0,VALID,99.7243,VALID,0,VALID,17.8946,VALID,329,VALID,0.224873,
2002-12-02, 03:04:01,VALID,917.395,VALID,0,VALID,99.723,VALID,0,VALID,17.8526,VALID,13,VALID,0.410773,
2002-12-02, 03:05:01,VALID,917.361,VALID,0,VALID,99.7281,VALID,-0.0169808,VALID,17.869,VALID,12,VALID,0.109848,
2002-12-02, 03:06:01,VALID,917.325,VALID,0,VALID,99.737,VALID,-0.0339617,VALID,17.8852,VALID,12,VALID,0.0122196,
2002-12-02, 03:07:00,VALID,917.306,VALID,0,VALID,99.7358,VALID,0.0169808,VALID,17.8656,VALID,12,VALID,0,
2002-12-02, 03:08:01,VALID,917.328,VALID,0,VALID,99.7256,VALID,0,VALID,17.8559,VALID,12,VALID,0.046875,
2002-12-02, 03:09:00,VALID,917.308,VALID,0,VALID,99.7294,VALID,0,VALID,17.8787,VALID,12,VALID,0,
2002-12-02, 03:10:00,VALID,917.296,VALID,0,VALID,99.7358,VALID,0,VALID,17.8686,VALID,12,VALID,0,
2002-12-02, 03:11:00,VALID,917.294,VALID,0,VALID,99.7396,VALID,0,VALID,17.8757,VALID,12,VALID,0,
2002-12-02, 03:12:01,VALID,917.279,VALID,0,VALID,99.7205,VALID,0,VALID,17.8623,VALID,22,VALID,0.140848,
2002-12-02, 03:13:00,VALID,917.266,VALID,0,VALID,99.7319,VALID,0,VALID,17.824,VALID,84,VALID,0.283203,
2002-12-02, 03:14:00,VALID,917.261,VALID,0,VALID,99.7192,VALID,-0.0169808,VALID,17.7855,VALID,86,VALID,0.255208,
2002-12-02, 03:15:01,VALID,917.256,VALID,0,VALID,99.7052,VALID,0,VALID,17.7336,VALID,134,VALID,0.62433,
2002-12-02, 03:16:00,VALID,917.234,VALID,0,VALID,99.6874,VALID,0,VALID,17.6955,VALID,140,VALID,0.430664,
2002-12-02, 03:17:01,VALID,917.226,VALID,0,VALID,99.69,VALID,0.0169808,VALID,17.6462,VALID,102,VALID,0.453125,
2002-12-02, 03:18:01,VALID,917.22,VALID,0,VALID,99.69,VALID,0,VALID,17.5883,VALID,76,VALID,0.468956,
2002-12-02, 03:19:00,VALID,917.197,VALID,0,VALID,99.6849,VALID,0,VALID,17.5267,VALID,74,VALID,0.604403,
2002-12-02, 03:20:01,VALID,917.209,VALID,0,VALID,99.6607,VALID,0,VALID,17.4589,VALID,115,VALID,0.668269,
2002-12-02, 03:21:00,VALID,917.217,VALID,0,VALID,99.6646,VALID,0,VALID,17.4368,VALID,151,VALID,0.768503,
2002-12-02, 03:22:00,VALID,917.232,VALID,0,VALID,99.6913,VALID,0,VALID,17.4495,VALID,150,VALID,0.751002,
2002-12-02, 03:23:00,VALID,917.233,VALID,0,VALID,99.7332,VALID,-0.0169808,VALID,17.479,VALID,141,VALID,0.694079,
2002-12-02, 03:24:00,VALID,917.234,VALID,0,VALID,99.7675,VALID,0,VALID,17.5177,VALID,127,VALID,0.558488,
2002-12-02, 03:25:00,VALID,917.237,VALID,0,VALID,99.7828,VALID,0,VALID,17.5362,VALID,132,VALID,0.48418,
2002-12-02, 03:26:00,VALID,917.227,VALID,0,VALID,99.8032,VALID,0,VALID,17.6339,VALID,117,VALID,0.486161,
2002-12-02, 03:27:00,VALID,917.197,VALID,0,VALID,99.8171,VALID,-0.0169808,VALID,17.6783,VALID,107,VALID,0.512587,
2002-12-02, 03:28:00,VALID,917.173,VALID,0,VALID,99.8184,VALID,0,VALID,17.7398,VALID,128,VALID,0.552284,
2002-12-02, 03:29:01,VALID,917.144,VALID,0,VALID,99.84,VALID,-0.0339617,VALID,17.8203,VALID,149,VALID,0.783482,
2002-12-02, 03:30:00,VALID,917.135,VALID,0,VALID,99.8388,VALID,-0.0169808,VALID,17.934,VALID,141,VALID,0.677148,
2002-12-02, 03:31:00,VALID,917.135,VALID,0,VALID,99.826,VALID,0.0169808,VALID,17.9463,VALID,129,VALID,0.313556,
2002-12-02, 03:32:01,VALID,917.104,VALID,0,VALID,99.8235,VALID,0.0169808,VALID,17.9467,VALID,124,VALID,0.622944,
2002-12-02, 03:33:00,VALID,917.108,VALID,0,VALID,99.8146,VALID,0,VALID,17.9467,VALID,128,VALID,0.570076,
2002-12-02, 03:34:01,VALID,917.104,VALID,0,VALID,99.821,VALID,0,VALID,17.9306,VALID,138,VALID,0.451723,